BEIDOU-3 IGSO-2

Last updated on Sat Sep 05 2026 00:03:05 GMT+0000 (Coordinated Universal Time)

1 44337U 19035A 26246.71248054 -.00000149 00000+0 00000+0 0 9993 2 44337 55.2496 158.1739 0039044 211.8203 349.1117 1.00275825 26458
UTC large
Height (km)
Speed (km/s)
/
Latitude / Longitude
Inclination (degrees)
Orbital Period (minutes)
Azimuth
Elevation
Range (km)
Doppler Factor

Next 0 passes for location: London (51.5072 / 0.1276)

No passes found over London.
BEIDOU-3 IGSO-2